Tracking 27419 objects as of 9-Jun-2023
HD Live streaming from Space Station
objects crossing your sky now

DELTA 1 DEB

Track DELTA 1 DEB now!
10-day predictions


NORAD ID: 7022
Int'l Code: 1973-086N
Perigee: 1,353.2 km
Apogee: 1,637.5 km
Inclination: 102.5 °
Period: 115.7 minutes
Semi major axis: 7866 km
RCS: 0.21 m2 (medium)
Launch date: November 6, 1973
Source: United States (US)
Launch site: AIR FORCE WESTERN TEST RANGE (AFWTR)

Note: This is SATELLITE DEBRIS
Your satellite tracking list
Your tracking list is empty




NASA's NSSDC Master Catalog

Two Line Element Set (TLE):
1  7022U 73086N   23160.05942569 -.00000062  00000-0 -10338-3 0  9995
2  7022 102.4582 196.2010 0180700 114.6284 274.9615 12.44351474251519
Source of the keplerian elements: AFSPC